This is the latest recevied weather packets stored in our database for station/object KA1STV. If no packets are shown the sender has not sent any weather packets the latest 1 day(s).
| Time | Temp. | Humidity | Pressure | Rain* | Wind** | Luminosity | Snow |
|---|---|---|---|---|---|---|---|
| 1836274622 | 15° C | 66% | 1020.4 hPa | 0 mm | 0.45 m/s, 33° | 0 W/m² | - |
| 1836274476 | 15.56° C | 64% | 1020.3 hPa | 0 mm | 0.45 m/s, 22° | 0 W/m² | - |
| 1836274320 | 15° C | 66% | 1020.1 hPa | 0 mm | 0 m/s | 0 W/m² | - |
| 1836274174 | 15.56° C | 64% | 1020.4 hPa | 0 mm | 0 m/s | 0 W/m² | - |
| 1836274019 | 15° C | 66% | 1020.3 hPa | 0 mm | 0 m/s | 0 W/m² | - |
| 1778065046 | 13.33° C | 93% | 1009.1 hPa | 0 mm | 0.45 m/s, 187° | 43 W/m² | - |
| 1778064743 | 12.78° C | 95% | 1009 hPa | 0 mm | 0.45 m/s, 76° | 68 W/m² | - |
| 1778064441 | 12.78° C | 95% | 1008.9 hPa | 0 mm | 0 m/s | 58 W/m² | - |
| 1778064138 | 12.78° C | 95% | 1009 hPa | 0 mm | 0 m/s | 47 W/m² | - |
| 1778063835 | 12.78° C | 95% | 1008.6 hPa | 0 mm | 0.45 m/s, 53° | 34 W/m² | - |
| 1778063532 | 12.78° C | 95% | 1008.8 hPa | 0 mm | 0.45 m/s, 61° | 19 W/m² | - |
| 1778063230 | 12.78° C | 95% | 1008.8 hPa | 0 mm | 0 m/s | 14 W/m² | - |
| 1778062928 | 12.78° C | 95% | 1008.8 hPa | 0 mm | 0.45 m/s, 76° | 16 W/m² | - |
| 1778062624 | 12.78° C | 95% | 1008.6 hPa | 0 mm | 0 m/s | 22 W/m² | - |
| 1778062321 | 12.22° C | 96% | 1008.6 hPa | 0 mm | 0 m/s | 23 W/m² | - |
| 1778062019 | 12.22° C | 96% | 1008.5 hPa | 0 mm | 0 m/s | 11 W/m² | - |
| 1778061717 | 12.22° C | 95% | 1008.4 hPa | 0 mm | 0.45 m/s, 54° | 7 W/m² | - |
| 1778061416 | 12.22° C | 95% | 1008.5 hPa | 0 mm | 0 m/s | 6 W/m² | - |
| 1778061112 | 12.78° C | 95% | 1008.4 hPa | 0 mm | 0 m/s | 3 W/m² | - |
| 1778060809 | 12.78° C | 95% | 1008.4 hPa | 0 mm | 0 m/s | 2 W/m² | - |
| 1778060507 | 12.78° C | 95% | 1008.1 hPa | 0 mm | 0.45 m/s, 65° | 0 W/m² | - |
| 1778060206 | 12.78° C | 95% | 1008.6 hPa | 0 mm | 0 m/s | 0 W/m² | - |
| 1778059902 | 12.78° C | 94% | 1008.6 hPa | 0 mm | 0 m/s | 0 W/m² | - |
| 1778059600 | 12.78° C | 94% | 1008.7 hPa | 0 mm | 0 m/s | 0 W/m² | - |
| 1778059297 | 12.78° C | 94% | 1008.4 hPa | 0 mm | 0 m/s | 0 W/m² | - |
* Rain latest hour (hover to see other rain measurements)
** Current wind speed in m/s (hover to see current wind gust speed)